Sisseton, SD

1:16 PM CST on December 14, 2017 (GMT -0600)
Sisseton

Weather History for K8D3 - June, 2014

Change the Weather History Date:

Friday, June 27, 2014

  Actual Average Record
Temperature  
Mean Temperature 72 °F 69 °F  
Max Temperature 78 °F 80 °F 99 °F (1936)
Min Temperature 66 °F 58 °F 44 °F (1985)
Degree Days  
Heating Degree Days 0 1  
Month to date heating degree days 35 60  
Since 1 June heating degree days 35 60  
Since 1 July heating degree days 9090 8281  
Cooling Degree Days 7 5  
Month to date cooling degree days 67 80  
Year to date cooling degree days 128 103  
Since 1 June cooling degree days 67 80  
Growing Degree Days 22 (Base 50)    
Moisture  
Dew Point 69 °F    
Average Humidity 88    
Maximum Humidity 100    
Minimum Humidity 76    
Precipitation  
Precipitation 0.20 in 0.12 in 1.16 in (1939)
Month to date precipitation 8.53 3.46  
Year to date precipitation 16.90 10.44  
Sea Level Pressure  
Sea Level Pressure 29.62 in    
Wind  
Wind Speed 12 mph (SSE)    
Max Wind Speed 28 mph    
Max Gust Speed 38 mph    
T = Trace of Precipitation, MM = Missing Value Source: NWS Daily Summary

Daily Weather History Graph

Daily Weather History Graph

Search for Another Location

Airport or City:

Trip Planner

Search our weather history database for the weather conditions in past years. The results will help you decide how hot, cold, wet, or windy it might be!

Date:

Astronomy

Jun. 27, 2014 Rise Set
Actual Time 5:40 AM CDT 9:21 PM CDT
Civil Twilight 5:02 AM CDT 9:59 PM CDT
Nautical Twilight 4:11 AM CDT 10:50 PM CDT
Astronomical Twilight 3:01 AM CDT 11:59 PM CDT
Moon 6:17 AM CDT (6/27) 9:21 PM CDT (6/27)
Length of Visible Light 16h 57m
Length of Day
15h 41m
New Moon, 0% of the Moon is Illuminated
Jun 27
New Moon
Jul 5
First Quarter
Jul 12
Full
Jul 18
Last Quarter
Jul 26
New

Hourly Weather History & Observations

Time (CDT) Temp. Dew Point Humidity Pressure Visibility Wind Dir Wind Speed Gust Speed Precip Events Conditions
12:56 AM 69.1 °F 68.0 °F 96% 29.70 in - SSE 12.7 mph - N/A   Unknown
1:56 AM 68.0 °F 68.0 °F 100% 29.68 in - South 12.7 mph - N/A   Unknown
2:56 AM 66.9 °F 66.0 °F 97% 29.68 in - South 15.0 mph - N/A   Unknown
3:56 AM 66.9 °F 66.0 °F 97% 29.68 in - South 13.8 mph - N/A   Unknown
4:56 AM 66.9 °F 66.0 °F 97% 29.68 in - South 11.5 mph - N/A   Unknown
5:56 AM 66.0 °F 66.0 °F 100% 29.66 in - South 12.7 mph - N/A   Unknown
6:56 AM 66.9 °F 66.0 °F 97% 29.65 in - South 9.2 mph - N/A   Unknown
7:56 AM 69.1 °F 66.0 °F 90% 29.66 in - South 11.5 mph - N/A   Unknown
8:56 AM 70.0 °F 66.9 °F 90% 29.66 in - SSE 11.5 mph - N/A   Unknown
9:56 AM 72.0 °F 66.9 °F 84% 29.65 in - South 15.0 mph - N/A   Unknown
10:56 AM 73.9 °F 68.0 °F 82% 29.64 in - South 17.3 mph - N/A   Unknown
11:56 AM 75.0 °F 69.1 °F 82% 29.62 in - SSE 13.8 mph 19.6 mph N/A   Unknown
12:56 PM 75.9 °F 70.0 °F 82% 29.60 in - SSE 17.3 mph - 0.01 in   Unknown
1:56 PM 75.9 °F 70.0 °F 82% 29.61 in - SSE 18.4 mph - N/A   Unknown
2:56 PM 71.1 °F 69.1 °F 93% 29.62 in - South 12.7 mph 36.8 mph 0.03 in   Unknown
3:56 PM 73.9 °F 72.0 °F 93% 29.60 in - SSE 10.4 mph - 0.10 in   Unknown
4:56 PM 73.9 °F 70.0 °F 87% 29.59 in - Calm Calm - 0.01 in   Unknown
5:56 PM 73.0 °F 71.1 °F 93% 29.58 in - East 5.8 mph - 0.05 in   Unknown
6:56 PM 77.0 °F 70.0 °F 79% 29.55 in - South 12.7 mph - N/A   Unknown
7:56 PM 73.9 °F 70.0 °F 87% 29.55 in - South 11.5 mph - N/A   Unknown
8:56 PM 73.0 °F 70.0 °F 90% 29.55 in - South 10.4 mph - N/A   Unknown
9:56 PM 72.0 °F 70.0 °F 93% 29.55 in - South 9.2 mph - N/A   Unknown
10:56 PM 72.0 °F 70.0 °F 93% 29.57 in - South 10.4 mph - N/A   Unknown
11:56 PM 71.1 °F 69.1 °F 93% 29.58 in - South 10.4 mph - N/A   Unknown